User: anonymous   Login
Location: Prague
(50.0830°N, 14.4670°E)
Time: 14:46:40
(UTC+02:00)
Language:

POLYITAN 1 - Orbit

View from above orbital plane
View from above orbital plane
View from above satellite
View from above satellite

Ground track
Ground track

The orbit data is extracted from the following two-line orbital elements,

1 40042U 14033AJ  21135.81685376  .00000485  00000-0  57261-4 0  9999
2 40042  97.9417  67.1979 0013123 279.1230  80.8502 14.89224853374454
Epoch (UTC): 15 May 2021 19:36:16
Eccentricity: 0.0013123
inclination: 97.9417°
perigee height: 591 km
apogee height: 609 km
right ascension of ascending node: 67.1979°
argument of perigee: 279.1230°
revolutions per day: 14.89224853
mean anomaly at epoch: 80.8502°
orbit number at epoch: 37445

The dashed part of the orbit path shows where the satellite is in the earth's shadow,  

DLR